Location: Contre
(49.7477°N, 2.0963°E)
Time: 22:26:43
(UTC+00:00)

Cosmos 1633 - Pass Details

Date: 03 February 2023
Orbit: 422 x 431 km, 82.5° (Epoch: 01 April)

Event Time Altitude Azimuth Distance (km) Brightness Sun altitude
Rises 17:35:36 0° 149° (SSE) 2,370 5.9 -7.8°
Reaches altitude 10° 17:38:10 10° 127° (SE) 1,511 4.7 -8.2°
Maximum altitude 17:40:16 16° 87° (E) 1,196 3.9 -8.5°
Drops below altitude 10° 17:42:23 10° 47° (NE) 1,521 4.5 -8.8°
Enters shadow 17:42:33 - 45° (NE) 1,567 4.6 -8.9°
